This is the latest recevied weather packets stored in our database for station/object IW8RUI-5. If no packets are shown the sender has not sent any weather packets the latest 10 day(s).
| Time | Temp. | Humidity | Pressure | Rain* | Wind** | Luminosity | Snow |
|---|---|---|---|---|---|---|---|
| 1777466063 | 16.11° C | 14% | 1012 hPa | 0 mm | - | - | - |
| 1777465762 | 16.11° C | 14% | 1012 hPa | 0 mm | - | - | - |
| 1777465462 | 15.56° C | 16% | 1012 hPa | 0 mm | - | - | - |
| 1777465162 | 16.67° C | 13% | 1012 hPa | 0 mm | - | - | - |
| 1777464562 | 17.22° C | 15% | 1012 hPa | 0 mm | - | - | - |
| 1777463962 | 17.22° C | 13% | 1012 hPa | 0 mm | - | - | - |
| 1777463662 | 16.67° C | 13% | 1012 hPa | 0 mm | - | - | - |
| 1777462762 | 17.22° C | 13% | 1012 hPa | 0 mm | - | - | - |
| 1777462462 | 16.67° C | 13% | 1012 hPa | 0 mm | - | - | - |
| 1777462162 | 16.67° C | 13% | 1012 hPa | 0 mm | - | - | - |
| 1777461862 | 16.67° C | 13% | 1012 hPa | 0 mm | - | - | - |
| 1777461562 | 16.67° C | 13% | 1012 hPa | 0 mm | - | - | - |
| 1777461262 | 16.67° C | 13% | 1012 hPa | 0 mm | - | - | - |
| 1777460962 | 16.67° C | 13% | 1012 hPa | 0 mm | - | - | - |
| 1777460662 | 16.67° C | 13% | 1012 hPa | 0 mm | - | - | - |
| 1777460362 | 16.67° C | 13% | 1012 hPa | 0 mm | - | - | - |
| 1777460242 | 16.67° C | 13% | 1012 hPa | 0 mm | - | - | - |
| 1777459462 | 16.67° C | 13% | 1012 hPa | 0 mm | - | - | - |
| 1777458862 | 16.11° C | 13% | 1012 hPa | 0 mm | - | - | - |
| 1777458562 | 16.11° C | 14% | 1012 hPa | 0 mm | - | - | - |
| 1777457962 | 16.11° C | 13% | 1012 hPa | 0 mm | - | - | - |
| 1777457662 | 16.11° C | 13% | 1012 hPa | 0 mm | - | - | - |
| 1777457362 | 16.67° C | 13% | 1012 hPa | 0 mm | - | - | - |
| 1777457062 | 16.67° C | 13% | 1012 hPa | 0 mm | - | - | - |
| 1777456762 | 16.67° C | 13% | 1012 hPa | 0 mm | - | - | - |
* Rain latest hour (hover to see other rain measurements)
** Current wind speed in m/s (hover to see current wind gust speed)